Araua, Brazil
Current Conditions -  °F | °C
As of 1:00 AM on Sunday 23 Nov 2014 (Local Time) from SBAR Reporting Station
Scattered Clouds Scattered Clouds  
Wind Chill: 77°   Ceiling: Unl
Heat Index: 78°   Visibility: 6mi
Dew Point: 72°   Wind: 7mph
Humidity: 83%   Direction: 90°E
Pressure: 29.91"   Gusts: NA
Location:  11.26°S, 37.62°W
Report Text: SBAR 230400Z 09006KT 9999 SCT017 25/22 Q1013
Loading
Personal Weather Stations






























Interactive Weather Map New forecast layout! Learn more

10-Day Weather Forecast

Advertisements
Track Severe Weather on mobile